• In Hungary
  • List of Countries
  • For 7 days
  • Water Temperature
  • Satellite Maps
  • Weather Map
  • News
  • Weather Widgets
  • user-avatar
    Login

    Hourly Weather Bogorodskoe

    Today, 19 July, Thursday

    Time Temperature Precipitation Wind Pressure Humidity
    00:00 +21°C° 0.3 mm 2 mps 746 mmHg 79%
    01:00 +21°C° 0.2 mm 2 mps 746 mmHg 80%
    02:00 +21°C° 0.2 mm 1 mps 746 mmHg 81%
    03:00 +21°C° 0.2 mm 1 mps 747 mmHg 82%
    04:00 +22°C° 0 mm 1 mps 747 mmHg 79%
    05:00 +23°C° 0 mm 1 mps 747 mmHg 77%
    06:00 +24°C° 0 mm 1 mps 747 mmHg 75%
    07:00 +25°C° 0.1 mm 2 mps 747 mmHg 69%
    08:00 +27°C° 0.1 mm 2 mps 747 mmHg 63%
    09:00 +28°C° 0.1 mm 3 mps 747 mmHg 57%
    10:00 +29°C° 0 mm 3 mps 747 mmHg 54%
    11:00 +30°C° 0 mm 4 mps 747 mmHg 50%
    12:00 +32°C° 0 mm 4 mps 747 mmHg 47%
    13:00 +32°C° 0 mm 4 mps 747 mmHg 47%
    14:00 +32°C° 0 mm 4 mps 747 mmHg 46%
    15:00 +33°C° 0 mm 4 mps 748 mmHg 46%
    16:00 +31°C° 0 mm 3 mps 748 mmHg 49%
    17:00 +31°C° 0 mm 3 mps 748 mmHg 53%
    18:00 +30°C° 0 mm 2 mps 748 mmHg 56%
    19:00 +29°C° 0 mm 1 mps 748 mmHg 59%
    20:00 +27°C° 0 mm 1 mps 748 mmHg 61%
    21:00 +23°C° 0 mm 0 mps 748 mmHg 64%
    22:00 +23°C° 0 mm 0 mps 748 mmHg 65%
    23:00 +22°C° 0 mm 0 mps 748 mmHg 67%

    Tomorrow, 20 July, Friday

    Time Temperature Precipitation Wind Pressure Humidity
    00:00 +22°C° 0 mm 0 mps 748 mmHg 68%
    01:00 +24°C° 0 mm 1 mps 748 mmHg 68%
    02:00 +23°C° 0 mm 1 mps 748 mmHg 69%
    03:00 +23°C° 0 mm 1 mps 749 mmHg 69%
    04:00 +24°C° 0.1 mm 1 mps 749 mmHg 69%
    05:00 +25°C° 0.1 mm 1 mps 749 mmHg 69%
    06:00 +25°C° 0.1 mm 1 mps 749 mmHg 68%
    07:00 +27°C° 0 mm 2 mps 749 mmHg 63%
    08:00 +29°C° 0 mm 2 mps 749 mmHg 57%
    09:00 +30°C° 0 mm 2 mps 749 mmHg 51%
    10:00 +31°C° 0 mm 3 mps 749 mmHg 47%
    11:00 +33°C° 0 mm 3 mps 749 mmHg 43%
    12:00 +34°C° 0 mm 3 mps 749 mmHg 40%
    13:00 +34°C° 0 mm 3 mps 748 mmHg 41%
    14:00 +34°C° 0 mm 3 mps 748 mmHg 41%
    15:00 +34°C° 0 mm 3 mps 748 mmHg 42%
    16:00 +31°C° 0 mm 3 mps 748 mmHg 48%
    17:00 +30°C° 0 mm 2 mps 748 mmHg 54%
    18:00 +29°C° 0 mm 2 mps 748 mmHg 60%
    19:00 +28°C° 0 mm 2 mps 748 mmHg 61%
    20:00 +27°C° 0 mm 2 mps 748 mmHg 62%
    21:00 +26°C° 0 mm 2 mps 749 mmHg 64%
    22:00 +26°C° 0.2 mm 2 mps 748 mmHg 66%
    23:00 +25°C° 0.2 mm 2 mps 748 mmHg 69%

    Day after tomorrow, 21 July, Saturday

    Time Temperature Precipitation Wind Pressure Humidity
    00:00 +24°C° 0.2 mm 2 mps 748 mmHg 72%
    01:00 +24°C° 0.1 mm 2 mps 748 mmHg 73%
    02:00 +24°C° 0.1 mm 1 mps 749 mmHg 73%
    03:00 +23°C° 0.1 mm 1 mps 749 mmHg 74%
    04:00 +24°C° 0 mm 1 mps 749 mmHg 74%
    05:00 +24°C° 0 mm 1 mps 749 mmHg 74%
    06:00 +25°C° 0 mm 1 mps 749 mmHg 73%
    07:00 +26°C° 0.2 mm 2 mps 749 mmHg 68%
    08:00 +27°C° 0.2 mm 2 mps 749 mmHg 62%
    09:00 +29°C° 0.2 mm 3 mps 749 mmHg 56%
    10:00 +30°C° 0.2 mm 3 mps 749 mmHg 53%
    11:00 +31°C° 0.2 mm 3 mps 748 mmHg 49%
    12:00 +33°C° 0.2 mm 3 mps 748 mmHg 46%
    13:00 +31°C° 0 mm 3 mps 748 mmHg 49%
    14:00 +31°C° 0 mm 2 mps 748 mmHg 51%
    15:00 +30°C° 0 mm 2 mps 748 mmHg 54%
    16:00 +29°C° 3.7 mm 3 mps 748 mmHg 62%
    17:00 +28°C° 3.7 mm 3 mps 748 mmHg 70%
    18:00 +26°C° 3.7 mm 4 mps 748 mmHg 78%
    19:00 +26°C° 13.5 mm 3 mps 748 mmHg 81%
    20:00 +25°C° 13.5 mm 3 mps 748 mmHg 84%
    21:00 +24°C° 13.5 mm 3 mps 749 mmHg 88%
    22:00 +24°C° 2.4 mm 3 mps 748 mmHg 88%
    23:00 +24°C° 2.4 mm 3 mps 748 mmHg 87%

    22 July, Sunday

    Time Temperature Precipitation Wind Pressure Humidity
    00:00 +23°C° 2.4 mm 2 mps 748 mmHg 87%
    01:00 +22°C° 2.1 mm 3 mps 748 mmHg 89%
    02:00 +22°C° 2.1 mm 3 mps 748 mmHg 90%
    03:00 +21°C° 2.1 mm 3 mps 748 mmHg 92%
    04:00 +22°C° 0.9 mm 4 mps 748 mmHg 91%
    05:00 +22°C° 0.9 mm 4 mps 748 mmHg 90%
    06:00 +22°C° 0.9 mm 4 mps 748 mmHg 89%
    07:00 +23°C° 0 mm 4 mps 748 mmHg 85%
    08:00 +26°C° 0 mm 4 mps 748 mmHg 81%
    09:00 +27°C° 0 mm 4 mps 748 mmHg 76%
    10:00 +28°C° 0.6 mm 4 mps 748 mmHg 71%
    11:00 +29°C° 0.6 mm 4 mps 748 mmHg 66%
    12:00 +30°C° 0.6 mm 4 mps 748 mmHg 61%
    13:00 +32°C° 1.2 mm 4 mps 748 mmHg 61%
    14:00 +31°C° 1.2 mm 3 mps 748 mmHg 61%
    15:00 +31°C° 1.2 mm 3 mps 748 mmHg 60%
    16:00 +30°C° 1.6 mm 3 mps 748 mmHg 65%
    17:00 +29°C° 1.6 mm 4 mps 748 mmHg 70%
    18:00 +27°C° 1.6 mm 4 mps 748 mmHg 75%
    19:00 +26°C° 2.2 mm 4 mps 748 mmHg 78%
    20:00 +26°C° 2.2 mm 4 mps 748 mmHg 81%
    21:00 +25°C° 2.2 mm 4 mps 749 mmHg 84%
    22:00 +23°C° 1.6 mm 4 mps 749 mmHg 86%
    23:00 +23°C° 1.6 mm 4 mps 749 mmHg 88%

    23 July, Monday

    Time Temperature Precipitation Wind Pressure Humidity
    00:00 +22°C° 1.6 mm 4 mps 749 mmHg 90%
    01:00 +22°C° 0.2 mm 4 mps 749 mmHg 91%
    02:00 +21°C° 0.2 mm 4 mps 749 mmHg 91%
    03:00 +21°C° 0.2 mm 4 mps 749 mmHg 92%
    04:00 +21°C° 0.1 mm 4 mps 749 mmHg 89%
    05:00 +21°C° 0.1 mm 4 mps 750 mmHg 87%
    06:00 +21°C° 0.1 mm 4 mps 750 mmHg 84%
    07:00 +22°C° 0 mm 5 mps 750 mmHg 79%
    08:00 +23°C° 0 mm 5 mps 750 mmHg 73%
    09:00 +25°C° 0 mm 5 mps 750 mmHg 68%
    10:00 +27°C° 0 mm 5 mps 750 mmHg 65%
    11:00 +28°C° 0 mm 6 mps 750 mmHg 62%
    12:00 +29°C° 0 mm 6 mps 750 mmHg 59%
    13:00 +29°C° 0 mm 6 mps 750 mmHg 57%
    14:00 +30°C° 0 mm 6 mps 750 mmHg 56%
    15:00 +30°C° 0 mm 6 mps 750 mmHg 54%
    16:00 +29°C° 0 mm 5 mps 750 mmHg 58%
    17:00 +29°C° 0 mm 5 mps 750 mmHg 61%
    18:00 +28°C° 0 mm 4 mps 750 mmHg 65%
    19:00 +27°C° 0.2 mm 5 mps 751 mmHg 63%
    20:00 +26°C° 0.2 mm 5 mps 751 mmHg 62%
    21:00 +23°C° 0.2 mm 5 mps 751 mmHg 61%
    22:00 +23°C° 0.3 mm 5 mps 751 mmHg 60%
    23:00 +22°C° 0.3 mm 5 mps 751 mmHg 58%

    24 July, Tuesday

    Time Temperature Precipitation Wind Pressure Humidity
    00:00 +21°C° 0.3 mm 5 mps 752 mmHg 57%
    01:00 +21°C° 0.1 mm 5 mps 752 mmHg 57%
    02:00 +20°C° 0.1 mm 4 mps 752 mmHg 57%
    03:00 +19°C° 0.1 mm 4 mps 752 mmHg 57%
    04:00 +19°C° 0 mm 5 mps 752 mmHg 59%
    05:00 +19°C° 0 mm 5 mps 752 mmHg 61%
    06:00 +19°C° 0 mm 5 mps 752 mmHg 63%
    07:00 +21°C° 0 mm 5 mps 753 mmHg 60%
    08:00 +22°C° 0 mm 6 mps 753 mmHg 56%
    09:00 +24°C° 0 mm 6 mps 753 mmHg 53%
    10:00 +26°C° 0 mm 6 mps 753 mmHg 51%
    11:00 +27°C° 0 mm 6 mps 753 mmHg 49%
    12:00 +28°C° 0 mm 6 mps 753 mmHg 47%
    13:00 +29°C° 0 mm 6 mps 753 mmHg 46%
    14:00 +29°C° 0 mm 6 mps 753 mmHg 45%
    15:00 +30°C° 0 mm 5 mps 753 mmHg 44%
    16:00 +29°C° 0 mm 5 mps 753 mmHg 47%
    17:00 +27°C° 0 mm 5 mps 753 mmHg 51%
    18:00 +26°C° 0 mm 5 mps 753 mmHg 54%
    19:00 +26°C° 0 mm 5 mps 753 mmHg 51%
    20:00 +24°C° 0 mm 6 mps 753 mmHg 49%
    21:00 +23°C° 0 mm 6 mps 753 mmHg 46%
    22:00 +22°C° 0 mm 6 mps 753 mmHg 47%
    23:00 +22°C° 0 mm 6 mps 753 mmHg 48%
    Show more